sat.trackr.live / text

‹ back to catalog

STARLINK-35798

NORAD 66292 · 2025-247AD

PAYLOAD ACTIVE UNKNOWN

§ Identity

Operator
Country
US
Launch date
2025-10-31
Launch site
AFWTR
Launch vehicle
Mass (kg)
RCS (m²)

Purposes: comms

External: N2YO · Heavens-Above · Gunter

§ Orbital elements

Epoch: 2026-09-20T13:06:21.992832Z

Period
93.85 min
Inclination
53.1669°
Eccentricity
0.0001217
Mean motion
15.34410496 rev/d
Perigee alt
461.8 km
Apogee alt
463.5 km
Semi-major
6,840.8 km
B*
7.4976e-4
RAAN
1.6305°
Arg perigee
83.0258°
Mean anomaly
277.0883°
Rev number
5,092

§ Raw data

STARLINK-357981 66292U 25247AD  26263.54608788  .00025049  00000+0  74976-3 0  99952 66292  53.1669   1.6305 0001217  83.0258 277.0883 15.34410496 50927

JSON: /api/v1/satellites/66292 · /tle

For live sub-satellite position, see the globe view (requires WebGL).

§ Visibility from observer

Set your observer location to see the next 7 days of passes ≥ 10°. The values pass through the URL so the page stays shareable.

No JS? Fill the form by hand. The geolocation button needs JavaScript.